Time,TemperatureF,DewpointF,PressureIn,WindDirection,WindDirectionDegrees,WindSpeedMPH,WindSpeedGustMPH,Humidity,HourlyPrecipIn,Conditions,Clouds,dailyrainin,SoftwareType,DateUTC
2013-02-12 00:00:00,32.5,30.0,29.70,ESE,112,0.0,2.5,90,0.00,,,0.00,WUHU21623XXSP,2013-02-12 05:00:00,
2013-02-12 00:05:00,32.9,30.3,29.70,ENE,67,0.0,2.5,90,0.00,,,0.00,WUHU21623XXSP,2013-02-12 05:05:00,
2013-02-12 00:10:00,32.7,30.1,29.68,ENE,67,0.0,3.6,90,0.00,,,0.00,WUHU21623XXSP,2013-02-12 05:10:00,
2013-02-12 00:15:00,32.9,30.3,29.69,SSE,157,0.0,3.6,90,0.00,,,0.00,WUHU21623XXSP,2013-02-12 05:15:00,
2013-02-12 00:20:00,32.7,30.1,29.69,SE,135,0.7,6.7,90,0.00,,,0.00,WUHU21623XXSP,2013-02-12 05:20:00,
2013-02-12 00:25:00,32.7,30.1,29.69,East,90,0.0,10.7,90,0.00,,,0.00,WUHU21623XXSP,2013-02-12 05:25:00,
2013-02-12 00:30:00,32.9,30.3,29.69,SSE,157,0.0,10.7,90,0.00,,,0.00,WUHU21623XXSP,2013-02-12 05:30:00,
2013-02-12 00:35:00,32.9,30.3,29.70,SSE,157,0.0,6.5,90,0.00,,,0.00,WUHU21623XXSP,2013-02-12 05:35:00,
2013-02-12 00:40:00,33.1,30.5,29.70,SSE,157,0.0,2.2,90,0.00,,,0.00,WUHU21623XXSP,2013-02-12 05:40:00,
2013-02-12 00:45:00,33.3,30.6,29.70,SSE,157,0.0,2.2,90,0.00,,,0.00,WUHU21623XXSP,2013-02-12 05:45:00,
2013-02-12 00:50:00,33.4,30.8,29.70,SW,225,0.0,2.0,90,0.00,,,0.00,WUHU21623XXSP,2013-02-12 05:50:00,
2013-02-12 00:55:00,33.1,30.5,29.70,South,180,0.0,2.0,90,0.00,,,0.00,WUHU21623XXSP,2013-02-12 05:55:00,
2013-02-12 01:00:00,33.1,30.2,29.70,South,180,0.0,4.9,89,0.00,,,0.00,WUHU21623XXSP,2013-02-12 06:00:00,
2013-02-12 01:05:00,33.1,30.2,29.70,SSE,157,0.0,4.9,89,0.00,,,0.00,WUHU21623XXSP,2013-02-12 06:05:00,
2013-02-12 01:10:00,32.9,30.0,29.71,SE,135,0.0,1.8,89,0.00,,,0.00,WUHU21623XXSP,2013-02-12 06:10:00,
2013-02-12 01:15:00,32.9,30.0,29.70,SSE,157,0.0,0.0,89,0.00,,,0.00,WUHU21623XXSP,2013-02-12 06:15:00,
2013-02-12 01:20:00,32.5,29.7,29.70,SE,135,0.0,0.0,89,0.00,,,0.00,WUHU21623XXSP,2013-02-12 06:20:00,
2013-02-12 01:25:00,32.7,29.8,29.70,SSE,157,0.0,6.7,89,0.00,,,0.00,WUHU21623XXSP,2013-02-12 06:25:00,
2013-02-12 01:30:00,32.7,29.8,29.71,SSE,157,0.0,6.7,89,0.00,,,0.00,WUHU21623XXSP,2013-02-12 06:30:00,
2013-02-12 01:35:00,32.9,30.0,29.71,SSE,157,0.0,3.8,89,0.00,,,0.00,WUHU21623XXSP,2013-02-12 06:35:00,
2013-02-12 01:40:00,32.9,30.0,29.71,SSE,157,0.0,0.0,89,0.00,,,0.00,WUHU21623XXSP,2013-02-12 06:40:00,
2013-02-12 01:45:00,32.7,29.8,29.71,SE,135,0.0,2.7,89,0.00,,,0.00,WUHU21623XXSP,2013-02-12 06:45:00,
2013-02-12 01:50:00,33.1,29.9,29.71,SSE,157,0.0,2.7,88,0.00,,,0.00,WUHU21623XXSP,2013-02-12 06:50:00,
2013-02-12 01:55:00,33.1,29.9,29.70,WNW,292,0.0,3.4,88,0.00,,,0.00,WUHU21623XXSP,2013-02-12 06:55:00,
2013-02-12 02:00:00,33.1,29.9,29.70,South,180,0.0,6.7,88,0.00,,,0.00,WUHU21623XXSP,2013-02-12 07:00:00,
2013-02-12 02:05:00,33.3,30.0,29.71,WSW,247,0.0,6.7,88,0.00,,,0.00,WUHU21623XXSP,2013-02-12 07:05:00,
2013-02-12 02:10:00,32.9,29.4,29.71,SSE,157,0.0,3.8,87,0.00,,,0.00,WUHU21623XXSP,2013-02-12 07:10:00,
2013-02-12 02:15:00,32.7,29.6,29.71,SSE,157,0.0,7.8,88,0.00,,,0.00,WUHU21623XXSP,2013-02-12 07:15:00,
2013-02-12 02:20:00,32.7,29.3,29.71,SSW,202,0.0,7.8,87,0.00,,,0.00,WUHU21623XXSP,2013-02-12 07:20:00,
2013-02-12 02:25:00,32.7,29.3,29.71,SSW,202,0.0,0.0,87,0.00,,,0.00,WUHU21623XXSP,2013-02-12 07:25:00,
2013-02-12 02:30:00,33.1,29.6,29.70,NNE,22,0.0,2.2,87,0.00,,,0.00,WUHU21623XXSP,2013-02-12 07:30:00,
2013-02-12 02:35:00,32.9,29.4,29.70,NNE,22,0.0,2.2,87,0.00,,,0.00,WUHU21623XXSP,2013-02-12 07:35:00,
2013-02-12 02:40:00,32.5,29.3,29.70,NE,45,0.0,0.0,87,0.00,,,0.00,WUHU21623XXSP,2013-02-12 07:40:00,
2013-02-12 02:45:00,32.7,29.3,29.70,SSW,202,0.0,9.2,87,0.00,,,0.00,WUHU21623XXSP,2013-02-12 07:45:00,
2013-02-12 02:50:00,32.9,29.1,29.71,South,180,0.0,9.2,86,0.00,,,0.00,WUHU21623XXSP,2013-02-12 07:50:00,
2013-02-12 02:55:00,32.7,29.0,29.70,South,180,1.3,2.5,86,0.00,,,0.00,WUHU21623XXSP,2013-02-12 07:55:00,
2013-02-12 03:00:00,32.9,28.9,29.70,NE,45,0.0,6.3,85,0.00,,,0.00,WUHU21623XXSP,2013-02-12 08:00:00,
2013-02-12 03:05:00,32.7,28.7,29.70,South,180,0.0,6.3,85,0.00,,,0.00,WUHU21623XXSP,2013-02-12 08:05:00,
2013-02-12 03:10:00,33.1,28.7,29.70,South,180,0.0,2.0,84,0.00,,,0.00,WUHU21623XXSP,2013-02-12 08:10:00,
2013-02-12 03:15:00,32.9,28.4,29.71,South,180,0.0,5.4,84,0.00,,,0.00,WUHU21623XXSP,2013-02-12 08:15:00,
2013-02-12 03:20:00,33.1,28.4,29.71,SSW,202,0.0,7.4,83,0.00,,,0.00,WUHU21623XXSP,2013-02-12 08:20:00,
2013-02-12 03:25:00,32.9,28.3,29.71,South,180,0.0,7.4,83,0.00,,,0.00,WUHU21623XXSP,2013-02-12 08:25:00,
2013-02-12 03:30:00,32.9,28.3,29.70,WSW,247,0.0,6.7,83,0.00,,,0.00,WUHU21623XXSP,2013-02-12 08:30:00,
2013-02-12 03:35:00,32.7,28.1,29.71,WSW,247,0.0,0.0,83,0.00,,,0.00,WUHU21623XXSP,2013-02-12 08:35:00,
2013-02-12 03:40:00,32.4,28.1,29.70,WSW,247,0.0,2.0,84,0.00,,,0.00,WUHU21623XXSP,2013-02-12 08:40:00,
2013-02-12 03:45:00,32.5,28.2,29.70,WSW,247,0.0,6.7,84,0.00,,,0.00,WUHU21623XXSP,2013-02-12 08:45:00,
2013-02-12 03:50:00,32.7,28.1,29.70,WSW,247,0.0,11.4,83,0.00,,,0.00,WUHU21623XXSP,2013-02-12 08:50:00,
2013-02-12 03:55:00,32.9,28.0,29.70,WSW,247,0.0,11.4,82,0.00,,,0.00,WUHU21623XXSP,2013-02-12 08:55:00,
2013-02-12 04:00:00,32.9,28.0,29.70,WSW,247,0.0,6.3,82,0.00,,,0.00,WUHU21623XXSP,2013-02-12 09:00:00,
2013-02-12 04:05:00,32.5,27.7,29.70,WSW,247,0.0,0.0,82,0.00,,,0.00,WUHU21623XXSP,2013-02-12 09:05:00,
2013-02-12 04:10:00,32.5,27.7,29.71,WSW,247,0.0,0.0,82,0.00,,,0.00,WUHU21623XXSP,2013-02-12 09:10:00,
2013-02-12 04:15:00,32.7,27.8,29.70,WSW,247,0.0,0.9,82,0.00,,,0.00,WUHU21623XXSP,2013-02-12 09:15:00,
2013-02-12 04:20:00,32.7,27.5,29.70,WSW,247,0.0,0.9,81,0.00,,,0.00,WUHU21623XXSP,2013-02-12 09:20:00,
2013-02-12 04:25:00,32.5,27.7,29.70,WSW,247,0.0,6.3,82,0.00,,,0.00,WUHU21623XXSP,2013-02-12 09:25:00,
2013-02-12 04:30:00,32.2,27.3,29.70,WSW,247,0.0,6.3,82,0.00,,,0.00,WUHU21623XXSP,2013-02-12 09:30:00,
2013-02-12 04:35:00,32.2,27.6,29.71,WSW,247,0.0,3.8,83,0.00,,,0.00,WUHU21623XXSP,2013-02-12 09:35:00,
2013-02-12 04:40:00,32.5,27.7,29.70,WSW,247,0.0,3.8,82,0.00,,,0.00,WUHU21623XXSP,2013-02-12 09:40:00,
2013-02-12 04:45:00,32.5,27.2,29.71,WSW,247,2.5,3.4,80,0.00,,,0.00,WUHU21623XXSP,2013-02-12 09:45:00,
2013-02-12 04:50:00,32.7,27.2,29.71,WSW,247,0.0,3.4,80,0.00,,,0.00,WUHU21623XXSP,2013-02-12 09:50:00,
2013-02-12 04:55:00,32.7,27.2,29.71,WSW,247,1.8,1.8,80,0.00,,,0.00,WUHU21623XXSP,2013-02-12 09:55:00,
2013-02-12 05:00:00,32.7,26.9,29.71,WSW,247,0.0,2.7,79,0.00,,,0.00,WUHU21623XXSP,2013-02-12 10:00:00,
2013-02-12 05:05:00,32.7,26.9,29.71,WSW,247,0.0,2.7,79,0.00,,,0.00,WUHU21623XXSP,2013-02-12 10:05:00,
2013-02-12 05:10:00,32.5,26.8,29.71,WSW,247,0.0,0.0,79,0.00,,,0.00,WUHU21623XXSP,2013-02-12 10:10:00,
2013-02-12 05:15:00,32.7,26.9,29.71,WSW,247,0.0,3.1,79,0.00,,,0.00,WUHU21623XXSP,2013-02-12 10:15:00,
2013-02-12 05:20:00,32.7,26.9,29.71,WSW,247,1.1,3.1,79,0.00,,,0.00,WUHU21623XXSP,2013-02-12 10:20:00,
2013-02-12 05:25:00,32.7,26.9,29.71,WSW,247,0.0,5.1,79,0.00,,,0.00,WUHU21623XXSP,2013-02-12 10:25:00,
2013-02-12 05:30:00,32.5,26.8,29.70,WSW,247,0.0,5.1,79,0.00,,,0.00,WUHU21623XXSP,2013-02-12 10:30:00,
2013-02-12 05:35:00,32.5,26.8,29.70,WSW,247,0.0,2.2,79,0.00,,,0.00,WUHU21623XXSP,2013-02-12 10:35:00,
2013-02-12 05:40:00,32.7,26.6,29.70,WSW,247,4.0,4.5,78,0.00,,,0.00,WUHU21623XXSP,2013-02-12 10:40:00,
2013-02-12 05:45:00,32.7,26.6,29.70,WSW,247,0.0,4.5,78,0.00,,,0.00,WUHU21623XXSP,2013-02-12 10:45:00,
2013-02-12 05:50:00,32.7,26.6,29.71,WSW,247,0.0,4.9,78,0.00,,,0.00,WUHU21623XXSP,2013-02-12 10:50:00,
2013-02-12 05:55:00,32.7,26.6,29.71,WSW,247,0.0,5.6,78,0.00,,,0.00,WUHU21623XXSP,2013-02-12 10:55:00,
2013-02-12 06:00:00,32.5,26.4,29.71,WSW,247,4.3,5.6,78,0.00,,,0.00,WUHU21623XXSP,2013-02-12 11:00:00,
2013-02-12 06:05:00,32.4,26.6,29.71,WSW,247,0.0,4.3,79,0.00,,,0.00,WUHU21623XXSP,2013-02-12 11:05:00,
2013-02-12 06:10:00,32.2,26.4,29.71,WSW,247,0.0,0.0,79,0.00,,,0.00,WUHU21623XXSP,2013-02-12 11:10:00,
2013-02-12 06:15:00,32.2,26.4,29.71,WSW,247,0.0,3.4,79,0.00,,,0.00,WUHU21623XXSP,2013-02-12 11:15:00,
2013-02-12 06:20:00,32.4,26.6,29.71,WSW,247,0.0,3.4,79,0.00,,,0.00,WUHU21623XXSP,2013-02-12 11:20:00,
2013-02-12 06:25:00,32.5,26.4,29.71,WSW,247,0.0,0.0,78,0.00,,,0.00,WUHU21623XXSP,2013-02-12 11:25:00,
2013-02-12 06:30:00,32.7,26.6,29.71,WSW,247,0.0,5.1,78,0.00,,,0.00,WUHU21623XXSP,2013-02-12 11:30:00,
2013-02-12 06:35:00,32.7,26.3,29.71,WSW,247,0.0,5.1,77,0.00,,,0.00,WUHU21623XXSP,2013-02-12 11:35:00,
2013-02-12 06:40:00,32.5,26.1,29.71,WSW,247,0.0,4.0,77,0.00,,,0.00,WUHU21623XXSP,2013-02-12 11:40:00,
2013-02-12 06:45:00,32.5,26.1,29.71,WSW,247,0.0,4.0,77,0.00,,,0.00,WUHU21623XXSP,2013-02-12 11:45:00,
2013-02-12 06:50:00,32.4,26.0,29.70,WSW,247,0.0,4.3,77,0.00,,,0.00,WUHU21623XXSP,2013-02-12 11:50:00,
2013-02-12 06:55:00,32.5,25.8,29.70,WSW,247,0.7,4.3,76,0.00,,,0.00,WUHU21623XXSP,2013-02-12 11:55:00,
2013-02-12 07:00:00,32.5,25.5,29.70,WSW,247,0.0,4.3,76,0.00,,,0.00,WUHU21623XXSP,2013-02-12 12:00:00,
2013-02-12 07:05:00,32.5,25.5,29.70,WSW,247,0.0,6.3,75,0.00,,,0.00,WUHU21623XXSP,2013-02-12 12:05:00,
2013-02-12 07:10:00,32.7,25.3,29.70,WSW,247,0.0,6.3,75,0.00,,,0.00,WUHU21623XXSP,2013-02-12 12:10:00,
2013-02-12 07:15:00,32.7,25.3,29.70,WSW,247,0.0,4.5,74,0.00,,,0.00,WUHU21623XXSP,2013-02-12 12:15:00,
2013-02-12 07:20:00,32.7,25.3,29.71,WSW,247,0.0,4.5,74,0.00,,,0.00,WUHU21623XXSP,2013-02-12 12:20:00,
2013-02-12 07:25:00,32.7,25.3,29.71,WSW,247,4.0,5.4,74,0.00,,,0.00,WUHU21623XXSP,2013-02-12 12:25:00,
2013-02-12 07:30:00,32.5,25.1,29.71,WSW,247,0.0,5.4,74,0.00,,,0.00,WUHU21623XXSP,2013-02-12 12:30:00,
2013-02-12 07:35:00,32.5,25.1,29.71,WSW,247,3.4,8.5,74,0.00,,,0.00,WUHU21623XXSP,2013-02-12 12:35:00,
2013-02-12 07:40:00,32.7,25.0,29.71,WSW,247,3.8,8.5,73,0.00,,,0.00,WUHU21623XXSP,2013-02-12 12:40:00,
2013-02-12 07:45:00,32.7,25.0,29.71,WSW,247,0.0,5.4,73,0.00,,,0.00,WUHU21623XXSP,2013-02-12 12:45:00,
2013-02-12 07:50:00,33.1,25.0,29.71,WSW,247,0.0,5.8,72,0.00,,,0.00,WUHU21623XXSP,2013-02-12 12:50:00,
2013-02-12 07:55:00,33.1,25.0,29.71,WSW,247,0.0,9.4,72,0.00,,,0.00,WUHU21623XXSP,2013-02-12 12:55:00,
2013-02-12 08:00:00,33.3,24.8,29.71,WSW,247,0.0,9.4,71,0.00,,,0.00,WUHU21623XXSP,2013-02-12 13:00:00,
2013-02-12 08:05:00,33.1,25.0,29.71,WSW,247,0.0,6.5,72,0.00,,,0.00,WUHU21623XXSP,2013-02-12 13:05:00,
2013-02-12 08:10:00,32.9,24.8,29.71,WSW,247,2.7,6.5,72,0.00,,,0.00,WUHU21623XXSP,2013-02-12 13:10:00,
2013-02-12 08:15:00,32.9,24.8,29.71,WSW,247,3.1,8.7,72,0.00,,,0.00,WUHU21623XXSP,2013-02-12 13:15:00,
2013-02-12 08:20:00,33.1,25.0,29.71,WSW,247,0.0,8.7,72,0.00,,,0.00,WUHU21623XXSP,2013-02-12 13:20:00,
2013-02-12 08:25:00,33.1,25.0,29.71,WSW,247,0.0,10.1,72,0.00,,,0.00,WUHU21623XXSP,2013-02-12 13:25:00,
2013-02-12 08:30:00,33.6,25.1,29.71,WSW,247,0.0,10.7,71,0.00,,,0.00,WUHU21623XXSP,2013-02-12 13:30:00,
2013-02-12 08:35:00,33.6,24.8,29.71,WSW,247,3.1,10.7,70,0.00,,,0.00,WUHU21623XXSP,2013-02-12 13:35:00,
2013-02-12 08:40:00,34.2,25.0,29.70,South,180,3.1,25.3,69,0.00,,,0.00,WUHU21623XXSP,2013-02-12 13:40:00,
2013-02-12 08:45:00,34.2,25.0,29.70,SW,225,2.9,25.3,69,0.00,,,0.00,WUHU21623XXSP,2013-02-12 13:45:00,
2013-02-12 08:50:00,34.2,25.0,29.70,South,180,0.0,12.1,69,0.00,,,0.00,WUHU21623XXSP,2013-02-12 13:50:00,
2013-02-12 08:55:00,34.3,24.8,29.70,SW,225,2.0,14.5,68,0.00,,,0.00,WUHU21623XXSP,2013-02-12 13:55:00,
2013-02-12 09:00:00,34.7,24.8,29.70,South,180,6.5,14.5,67,0.00,,,0.00,WUHU21623XXSP,2013-02-12 14:00:00,
2013-02-12 09:05:00,34.9,25.0,29.71,SSW,202,5.6,10.7,67,0.00,,,0.00,WUHU21623XXSP,2013-02-12 14:05:00,
2013-02-12 09:10:00,34.9,25.0,29.71,SSW,202,5.8,11.2,67,0.00,,,0.00,WUHU21623XXSP,2013-02-12 14:10:00,
2013-02-12 09:15:00,35.1,25.2,29.71,SW,225,0.0,15.9,67,0.00,,,0.00,WUHU21623XXSP,2013-02-12 14:15:00,
2013-02-12 09:20:00,35.2,25.0,29.71,SSE,157,6.7,15.9,66,0.00,,,0.00,WUHU21623XXSP,2013-02-12 14:20:00,
2013-02-12 09:25:00,35.4,25.2,29.71,SSE,157,4.9,13.9,66,0.00,,,0.00,WUHU21623XXSP,2013-02-12 14:25:00,
2013-02-12 09:30:00,36.0,25.7,29.71,NNW,337,6.9,9.4,66,0.00,,,0.00,WUHU21623XXSP,2013-02-12 14:30:00,
2013-02-12 09:35:00,36.1,25.5,29.71,WNW,292,4.0,29.5,65,0.00,,,0.00,WUHU21623XXSP,2013-02-12 14:35:00,
2013-02-12 09:40:00,36.0,24.9,29.71,SSE,157,9.6,29.5,64,0.00,,,0.00,WUHU21623XXSP,2013-02-12 14:40:00,
2013-02-12 09:45:00,36.0,24.9,29.71,SSE,157,0.0,14.8,64,0.00,,,0.00,WUHU21623XXSP,2013-02-12 14:45:00,
2013-02-12 09:50:00,36.1,25.5,29.71,NNW,337,3.6,13.6,65,0.00,,,0.00,WUHU21623XXSP,2013-02-12 14:50:00,
2013-02-12 09:55:00,36.1,25.1,29.71,West,270,3.1,13.6,64,0.00,,,0.00,WUHU21623XXSP,2013-02-12 14:55:00,
2013-02-12 10:00:00,36.3,25.3,29.72,NW,315,8.5,17.4,64,0.00,,,0.00,WUHU21623XXSP,2013-02-12 15:00:00,
2013-02-12 10:05:00,36.5,25.1,29.73,SW,225,0.0,17.4,63,0.00,,,0.00,WUHU21623XXSP,2013-02-12 15:05:00,
2013-02-12 10:10:00,36.1,25.5,29.72,West,270,2.7,16.8,65,0.00,,,0.00,WUHU21623XXSP,2013-02-12 15:10:00,
2013-02-12 10:15:00,36.7,25.3,29.72,West,270,1.3,16.3,63,0.00,,,0.00,WUHU21623XXSP,2013-02-12 15:15:00,
2013-02-12 10:20:00,37.4,25.6,29.72,South,180,11.0,13.0,62,0.00,,,0.00,WUHU21623XXSP,2013-02-12 15:20:00,
2013-02-12 10:25:00,37.6,25.7,29.72,SW,225,5.8,13.6,62,0.00,,,0.00,WUHU21623XXSP,2013-02-12 15:25:00,
2013-02-12 10:30:00,37.6,26.1,29.72,West,270,3.8,14.3,63,0.00,,,0.00,WUHU21623XXSP,2013-02-12 15:30:00,
2013-02-12 10:35:00,37.4,25.6,29.73,West,270,0.0,14.3,62,0.00,,,0.00,WUHU21623XXSP,2013-02-12 15:35:00,
2013-02-12 10:40:00,37.2,25.4,29.73,WSW,247,4.7,16.6,62,0.00,,,0.00,WUHU21623XXSP,2013-02-12 15:40:00,
2013-02-12 10:45:00,37.0,25.6,29.73,West,270,1.6,16.6,63,0.00,,,0.00,WUHU21623XXSP,2013-02-12 15:45:00,
2013-02-12 10:50:00,37.0,25.6,29.73,SW,225,7.6,12.3,63,0.00,,,0.00,WUHU21623XXSP,2013-02-12 15:50:00,
2013-02-12 10:55:00,37.2,25.8,29.73,West,270,9.6,14.8,63,0.00,,,0.00,WUHU21623XXSP,2013-02-12 15:55:00,
2013-02-12 11:00:00,37.2,25.8,29.74,SSW,202,5.6,14.8,63,0.00,,,0.00,WUHU21623XXSP,2013-02-12 16:00:00,
2013-02-12 11:05:00,37.0,25.6,29.74,SSE,157,8.1,16.6,63,0.00,,,0.00,WUHU21623XXSP,2013-02-12 16:05:00,
2013-02-12 11:10:00,37.2,25.8,29.74,West,270,0.0,16.6,63,0.00,,,0.00,WUHU21623XXSP,2013-02-12 16:10:00,
2013-02-12 11:15:00,37.2,25.8,29.74,SSW,202,4.7,13.0,63,0.00,,,0.00,WUHU21623XXSP,2013-02-12 16:15:00,
2013-02-12 11:20:00,37.2,25.4,29.74,SSW,202,3.1,13.0,62,0.00,,,0.00,WUHU21623XXSP,2013-02-12 16:20:00,
2013-02-12 11:25:00,37.6,25.7,29.74,WNW,292,0.0,10.5,62,0.02,,,0.03,WUHU21623XXSP,2013-02-12 16:25:00,
2013-02-12 11:30:00,37.9,26.0,29.74,West,270,9.2,10.5,62,0.02,,,0.03,WUHU21623XXSP,2013-02-12 16:30:00,
2013-02-12 11:35:00,38.1,26.2,29.74,West,270,4.0,14.8,62,0.02,,,0.03,WUHU21623XXSP,2013-02-12 16:35:00,
2013-02-12 11:40:00,38.1,25.8,29.74,WNW,292,4.7,15.0,61,0.02,,,0.03,WUHU21623XXSP,2013-02-12 16:40:00,
2013-02-12 11:45:00,38.3,26.0,29.75,WNW,292,2.9,15.0,61,0.02,,,0.03,WUHU21623XXSP,2013-02-12 16:45:00,
2013-02-12 11:50:00,37.9,25.7,29.74,West,270,0.0,15.9,61,0.02,,,0.03,WUHU21623XXSP,2013-02-12 16:50:00,
2013-02-12 11:54:00,37.9,26.0,29.74,WSW,247,0.0,16.6,62,0.02,,,0.03,WUHU21623XXSP,2013-02-12 16:54:00,
2013-02-12 11:59:00,37.9,26.4,29.74,South,180,1.6,16.6,63,0.02,,,0.03,WUHU21623XXSP,2013-02-12 16:59:00,
2013-02-12 12:04:00,37.8,26.3,29.75,NW,315,5.8,9.6,63,0.02,,,0.03,WUHU21623XXSP,2013-02-12 17:04:00,
2013-02-12 12:09:00,37.6,26.1,29.75,West,270,0.0,8.5,63,0.02,,,0.03,WUHU21623XXSP,2013-02-12 17:09:00,
2013-02-12 12:14:00,37.8,26.3,29.75,WSW,247,5.8,13.2,63,0.02,,,0.03,WUHU21623XXSP,2013-02-12 17:14:00,
2013-02-12 12:19:00,37.8,26.3,29.75,WSW,247,6.5,15.2,63,0.04,,,0.05,WUHU21623XXSP,2013-02-12 17:19:00,
2013-02-12 12:24:00,37.8,26.3,29.75,NW,315,1.3,15.2,63,0.02,,,0.05,WUHU21623XXSP,2013-02-12 17:24:00,
2013-02-12 12:29:00,37.8,26.3,29.75,SW,225,0.2,11.9,63,0.02,,,0.05,WUHU21623XXSP,2013-02-12 17:29:00,
2013-02-12 12:34:00,37.4,26.3,29.75,WSW,247,13.4,13.4,64,0.02,,,0.05,WUHU21623XXSP,2013-02-12 17:34:00,
2013-02-12 12:39:00,37.6,26.1,29.75,WSW,247,0.0,13.4,63,0.02,,,0.05,WUHU21623XXSP,2013-02-12 17:39:00,
2013-02-12 12:44:00,37.9,26.4,29.75,SSW,202,0.0,8.9,63,0.04,,,0.07,WUHU21623XXSP,2013-02-12 17:44:00,
2013-02-12 12:49:00,38.1,26.6,29.76,WSW,247,0.0,12.8,63,0.04,,,0.07,WUHU21623XXSP,2013-02-12 17:49:00,
2013-02-12 12:54:00,38.1,26.6,29.76,SSW,202,0.0,12.8,63,0.04,,,0.07,WUHU21623XXSP,2013-02-12 17:54:00,
2013-02-12 12:59:00,38.3,26.7,29.76,West,270,0.0,11.2,63,0.04,,,0.07,WUHU21623XXSP,2013-02-12 17:59:00,
2013-02-12 13:04:00,38.3,26.7,29.76,SSE,157,5.8,12.1,63,0.04,,,0.07,WUHU21623XXSP,2013-02-12 18:04:00,
2013-02-12 13:09:00,38.5,26.9,29.77,South,180,5.4,12.1,63,0.04,,,0.07,WUHU21623XXSP,2013-02-12 18:09:00,
2013-02-12 13:14:00,38.5,26.9,29.76,SW,225,0.0,10.3,63,0.04,,,0.07,WUHU21623XXSP,2013-02-12 18:14:00,
2013-02-12 13:19:00,38.3,26.7,29.76,SW,225,3.1,11.2,63,0.02,,,0.07,WUHU21623XXSP,2013-02-12 18:19:00,
2013-02-12 13:24:00,38.1,26.6,29.77,SW,225,5.8,11.2,63,0.02,,,0.07,WUHU21623XXSP,2013-02-12 18:24:00,
2013-02-12 13:29:00,37.9,26.4,29.77,SW,225,0.0,14.5,63,0.02,,,0.07,WUHU21623XXSP,2013-02-12 18:29:00,
2013-02-12 13:34:00,37.6,26.5,29.77,SW,225,3.6,14.5,64,0.02,,,0.07,WUHU21623XXSP,2013-02-12 18:34:00,
2013-02-12 13:39:00,37.6,26.5,29.77,South,180,0.0,13.6,64,0.04,,,0.09,WUHU21623XXSP,2013-02-12 18:39:00,
2013-02-12 13:44:00,37.2,26.5,29.77,West,270,0.0,7.8,65,0.02,,,0.09,WUHU21623XXSP,2013-02-12 18:44:00,
2013-02-12 13:49:00,37.2,26.1,29.78,WNW,292,3.8,7.2,64,0.02,,,0.09,WUHU21623XXSP,2013-02-12 18:49:00,
2013-02-12 13:54:00,37.2,26.5,29.78,SW,225,6.0,8.1,65,0.02,,,0.09,WUHU21623XXSP,2013-02-12 18:54:00,
2013-02-12 13:59:00,37.0,26.3,29.78,South,180,0.0,8.1,65,0.02,,,0.09,WUHU21623XXSP,2013-02-12 18:59:00,
2013-02-12 14:04:00,36.7,26.4,29.78,WNW,292,0.0,6.7,66,0.02,,,0.09,WUHU21623XXSP,2013-02-12 19:04:00,
2013-02-12 14:09:00,36.7,26.7,29.78,WSW,247,4.3,6.7,67,0.02,,,0.09,WUHU21623XXSP,2013-02-12 19:09:00,
2013-02-12 14:14:00,36.7,26.4,29.78,SSE,157,8.1,8.9,66,0.02,,,0.09,WUHU21623XXSP,2013-02-12 19:14:00,
2013-02-12 14:19:00,36.7,26.7,29.78,NW,315,4.7,12.1,67,0.04,,,0.11,WUHU21623XXSP,2013-02-12 19:19:00,
2013-02-12 14:24:00,36.7,26.4,29.78,West,270,3.4,12.1,66,0.04,,,0.11,WUHU21623XXSP,2013-02-12 19:24:00,
2013-02-12 14:29:00,36.7,26.7,29.78,West,270,0.0,10.5,67,0.04,,,0.11,WUHU21623XXSP,2013-02-12 19:29:00,
2013-02-12 14:34:00,36.9,26.9,29.78,WSW,247,0.0,6.9,67,0.04,,,0.11,WUHU21623XXSP,2013-02-12 19:34:00,
2013-02-12 14:39:00,36.9,26.9,29.79,SSW,202,0.0,5.8,67,0.02,,,0.11,WUHU21623XXSP,2013-02-12 19:39:00,
2013-02-12 14:44:00,36.7,26.7,29.78,NE,45,0.0,13.0,67,0.02,,,0.11,WUHU21623XXSP,2013-02-12 19:44:00,
2013-02-12 14:49:00,36.7,26.7,29.79,NW,315,0.0,13.0,67,0.02,,,0.11,WUHU21623XXSP,2013-02-12 19:49:00,
2013-02-12 14:54:00,36.9,27.3,29.79,South,180,1.6,6.9,68,0.02,,,0.11,WUHU21623XXSP,2013-02-12 19:54:00,
2013-02-12 14:59:00,36.7,26.7,29.79,WNW,292,0.0,11.4,67,0.02,,,0.11,WUHU21623XXSP,2013-02-12 19:59:00,
2013-02-12 15:05:00,36.7,26.7,29.80,South,180,3.8,13.9,67,0.02,,,0.11,WUHU21623XXSP,2013-02-12 20:05:00,
2013-02-12 15:10:00,36.7,26.7,29.80,South,180,9.2,15.2,67,0.02,,,0.11,WUHU21623XXSP,2013-02-12 20:10:00,
2013-02-12 15:15:00,36.5,26.9,29.80,South,180,0.0,15.2,68,0.02,,,0.11,WUHU21623XXSP,2013-02-12 20:15:00,
2013-02-12 15:20:00,36.3,26.8,29.80,SW,225,7.2,10.1,68,0.00,,,0.11,WUHU21623XXSP,2013-02-12 20:20:00,
2013-02-12 15:25:00,36.1,26.6,29.80,SSW,202,11.4,11.4,68,0.00,,,0.11,WUHU21623XXSP,2013-02-12 20:25:00,
2013-02-12 15:30:00,36.3,26.8,29.80,SSW,202,6.5,14.1,68,0.00,,,0.11,WUHU21623XXSP,2013-02-12 20:30:00,
2013-02-12 15:35:00,36.3,26.4,29.80,SW,225,0.0,19.0,67,0.00,,,0.11,WUHU21623XXSP,2013-02-12 20:35:00,
2013-02-12 15:40:00,36.5,26.6,29.81,NW,315,7.6,19.0,67,0.00,,,0.11,WUHU21623XXSP,2013-02-12 20:40:00,
2013-02-12 15:45:00,36.5,26.6,29.81,SW,225,0.0,17.0,67,0.00,,,0.11,WUHU21623XXSP,2013-02-12 20:45:00,
2013-02-12 15:50:00,36.3,26.8,29.81,SW,225,0.0,9.8,68,0.00,,,0.11,WUHU21623XXSP,2013-02-12 20:50:00,
2013-02-12 15:55:00,36.3,26.4,29.82,SSE,157,0.0,9.8,67,0.00,,,0.11,WUHU21623XXSP,2013-02-12 20:55:00,
2013-02-12 16:00:00,36.1,26.6,29.81,WSW,247,0.0,6.7,68,0.00,,,0.11,WUHU21623XXSP,2013-02-12 21:00:00,
2013-02-12 16:05:00,36.1,26.6,29.81,West,270,1.6,10.1,68,0.00,,,0.11,WUHU21623XXSP,2013-02-12 21:05:00,
2013-02-12 16:10:00,36.0,26.8,29.81,West,270,1.6,10.1,69,0.00,,,0.11,WUHU21623XXSP,2013-02-12 21:10:00,
2013-02-12 16:15:00,35.8,26.6,29.81,WNW,292,0.9,7.6,69,0.00,,,0.11,WUHU21623XXSP,2013-02-12 21:15:00,
2013-02-12 16:20:00,35.8,26.6,29.81,SSE,157,3.1,7.4,69,0.00,,,0.11,WUHU21623XXSP,2013-02-12 21:20:00,
2013-02-12 16:25:00,35.8,26.6,29.81,SE,135,0.0,7.4,69,0.00,,,0.11,WUHU21623XXSP,2013-02-12 21:25:00,
2013-02-12 16:30:00,35.8,27.0,29.81,SE,135,0.0,6.5,70,0.00,,,0.11,WUHU21623XXSP,2013-02-12 21:30:00,
2013-02-12 16:35:00,35.8,26.6,29.81,ESE,112,0.0,5.1,69,0.00,,,0.11,WUHU21623XXSP,2013-02-12 21:35:00,
2013-02-12 16:40:00,35.8,26.2,29.81,SE,135,0.0,5.1,68,0.02,,,0.13,WUHU21623XXSP,2013-02-12 21:40:00,
2013-02-12 16:45:00,35.8,26.6,29.81,ENE,67,0.0,5.6,69,0.02,,,0.13,WUHU21623XXSP,2013-02-12 21:45:00,
2013-02-12 16:50:00,35.8,26.6,29.81,West,270,0.0,5.6,69,0.02,,,0.13,WUHU21623XXSP,2013-02-12 21:50:00,
2013-02-12 16:55:00,35.6,26.4,29.82,SSW,202,1.6,16.8,69,0.02,,,0.13,WUHU21623XXSP,2013-02-12 21:55:00,
2013-02-12 17:00:00,35.8,26.2,29.82,SSE,157,3.4,16.8,68,0.02,,,0.13,WUHU21623XXSP,2013-02-12 22:00:00,
2013-02-12 17:05:00,35.8,26.2,29.82,North,0,0.0,10.5,68,0.02,,,0.13,WUHU21623XXSP,2013-02-12 22:05:00,
2013-02-12 17:10:00,35.4,26.2,29.82,WNW,292,5.4,7.4,69,0.02,,,0.13,WUHU21623XXSP,2013-02-12 22:10:00,
2013-02-12 17:15:00,35.4,26.2,29.83,WSW,247,0.0,7.4,69,0.02,,,0.13,WUHU21623XXSP,2013-02-12 22:15:00,
2013-02-12 17:20:00,35.4,26.2,29.83,West,270,0.0,6.0,69,0.02,,,0.13,WUHU21623XXSP,2013-02-12 22:20:00,
2013-02-12 17:25:00,35.4,27.2,29.83,South,180,0.0,4.7,72,0.02,,,0.13,WUHU21623XXSP,2013-02-12 22:25:00,
2013-02-12 17:30:00,35.2,26.4,29.83,ESE,112,2.5,10.1,70,0.02,,,0.13,WUHU21623XXSP,2013-02-12 22:30:00,
2013-02-12 17:35:00,35.2,26.1,29.82,West,270,0.0,10.1,69,0.02,,,0.13,WUHU21623XXSP,2013-02-12 22:35:00,
2013-02-12 17:40:00,34.9,26.1,29.82,West,270,0.0,9.2,70,0.00,,,0.13,WUHU21623XXSP,2013-02-12 22:40:00,
2013-02-12 17:45:00,34.7,26.2,29.82,South,180,0.0,8.1,71,0.00,,,0.13,WUHU21623XXSP,2013-02-12 22:45:00,
2013-02-12 17:50:00,34.7,25.9,29.82,SE,135,0.0,8.1,70,0.00,,,0.13,WUHU21623XXSP,2013-02-12 22:50:00,
2013-02-12 17:55:00,34.9,25.7,29.82,West,270,1.6,10.1,69,0.00,,,0.13,WUHU21623XXSP,2013-02-12 22:55:00,
2013-02-12 18:00:00,34.7,25.5,29.83,West,270,4.0,10.1,69,0.00,,,0.13,WUHU21623XXSP,2013-02-12 23:00:00,
2013-02-12 18:05:00,34.9,25.7,29.83,WNW,292,0.0,6.3,69,0.00,,,0.13,WUHU21623XXSP,2013-02-12 23:05:00,
2013-02-12 18:10:00,34.5,26.0,29.83,WSW,247,0.0,9.2,71,0.00,,,0.13,WUHU21623XXSP,2013-02-12 23:10:00,
2013-02-12 18:15:00,34.5,25.7,29.83,WNW,292,1.8,9.2,70,0.00,,,0.13,WUHU21623XXSP,2013-02-12 23:15:00,
2013-02-12 18:20:00,34.5,25.7,29.82,SW,225,0.0,8.7,70,0.00,,,0.13,WUHU21623XXSP,2013-02-12 23:20:00,
2013-02-12 18:25:00,34.3,25.8,29.83,South,180,0.0,4.5,71,0.00,,,0.13,WUHU21623XXSP,2013-02-12 23:25:00,
2013-02-12 18:30:00,34.2,26.0,29.83,WSW,247,2.2,5.8,72,0.00,,,0.13,WUHU21623XXSP,2013-02-12 23:30:00,
2013-02-12 18:35:00,34.3,25.8,29.83,SE,135,6.0,16.3,71,0.00,,,0.13,WUHU21623XXSP,2013-02-12 23:35:00,
2013-02-12 18:40:00,34.2,26.0,29.83,SSW,202,6.9,16.3,72,0.00,,,0.13,WUHU21623XXSP,2013-02-12 23:40:00,
2013-02-12 18:45:00,34.2,25.7,29.84,WNW,292,0.0,10.5,71,0.00,,,0.13,WUHU21623XXSP,2013-02-12 23:45:00,
2013-02-12 18:50:00,34.2,25.7,29.84,South,180,0.0,10.5,71,0.02,,,0.15,WUHU21623XXSP,2013-02-12 23:50:00,
2013-02-12 18:55:00,34.0,25.5,29.85,SSW,202,0.0,6.3,71,0.02,,,0.15,WUHU21623XXSP,2013-02-12 23:55:00,
2013-02-12 19:00:00,34.2,25.7,29.85,NW,315,0.0,10.1,71,0.02,,,0.15,WUHU21623XXSP,2013-02-13 00:00:00,
2013-02-12 19:05:00,34.0,25.8,29.85,SW,225,0.0,10.1,72,0.02,,,0.15,WUHU21623XXSP,2013-02-13 00:05:00,
2013-02-12 19:10:00,33.6,25.8,29.86,WNW,292,0.0,9.8,73,0.02,,,0.15,WUHU21623XXSP,2013-02-13 00:10:00,
2013-02-12 19:15:00,33.6,25.8,29.86,South,180,0.0,9.8,73,0.02,,,0.15,WUHU21623XXSP,2013-02-13 00:15:00,
2013-02-12 19:20:00,33.6,25.8,29.86,SW,225,0.0,8.5,73,0.02,,,0.15,WUHU21623XXSP,2013-02-13 00:20:00,
2013-02-12 19:25:00,33.4,25.8,29.86,SW,225,0.0,6.9,73,0.02,,,0.15,WUHU21623XXSP,2013-02-13 00:25:00,
2013-02-12 19:30:00,33.6,25.8,29.86,SW,225,4.0,12.5,73,0.02,,,0.15,WUHU21623XXSP,2013-02-13 00:30:00,
2013-02-12 19:35:00,33.4,26.0,29.87,West,270,0.0,12.5,74,0.02,,,0.15,WUHU21623XXSP,2013-02-13 00:35:00,
2013-02-12 19:40:00,33.4,25.3,29.87,SSW,202,3.4,11.4,72,0.02,,,0.15,WUHU21623XXSP,2013-02-13 00:40:00,
2013-02-12 19:45:00,33.6,25.1,29.87,West,270,0.0,10.1,71,0.00,,,0.15,WUHU21623XXSP,2013-02-13 00:45:00,
2013-02-12 19:50:00,33.6,25.1,29.88,SSW,202,0.0,10.1,71,0.00,,,0.15,WUHU21623XXSP,2013-02-13 00:50:00,
2013-02-12 19:55:00,33.6,25.1,29.89,South,180,0.0,15.7,71,0.00,,,0.15,WUHU21623XXSP,2013-02-13 00:55:00,
2013-02-12 20:00:00,33.6,25.1,29.89,South,180,2.5,15.7,71,0.00,,,0.15,WUHU21623XXSP,2013-02-13 01:00:00,
2013-02-12 20:05:00,33.6,25.1,29.89,WSW,247,0.0,10.3,71,0.00,,,0.15,WUHU21623XXSP,2013-02-13 01:05:00,
2013-02-12 20:10:00,33.6,25.5,29.89,SW,225,2.0,4.0,72,0.00,,,0.15,WUHU21623XXSP,2013-02-13 01:10:00,
2013-02-12 20:15:00,33.4,25.3,29.90,SE,135,0.0,6.7,72,0.00,,,0.15,WUHU21623XXSP,2013-02-13 01:15:00,
2013-02-12 20:20:00,33.4,25.0,29.90,SSW,202,1.6,11.4,71,0.00,,,0.15,WUHU21623XXSP,2013-02-13 01:20:00,
2013-02-12 20:25:00,33.4,25.3,29.91,South,180,3.4,11.4,72,0.00,,,0.15,WUHU21623XXSP,2013-02-13 01:25:00,
2013-02-12 20:30:00,33.4,25.3,29.91,South,180,3.1,12.3,72,0.00,,,0.15,WUHU21623XXSP,2013-02-13 01:30:00,
2013-02-12 20:35:00,33.4,25.0,29.92,South,180,1.1,12.3,71,0.00,,,0.15,WUHU21623XXSP,2013-02-13 01:35:00,
2013-02-12 20:40:00,33.4,25.3,29.92,South,180,2.2,8.5,72,0.00,,,0.15,WUHU21623XXSP,2013-02-13 01:40:00,
2013-02-12 20:45:00,33.4,25.0,29.92,WSW,247,2.2,6.5,71,0.00,,,0.15,WUHU21623XXSP,2013-02-13 01:45:00,
2013-02-12 20:50:00,33.3,25.3,29.92,West,270,0.0,6.5,72,0.00,,,0.15,WUHU21623XXSP,2013-02-13 01:50:00,
2013-02-12 20:55:00,33.1,25.0,29.92,South,180,0.0,5.1,72,0.00,,,0.15,WUHU21623XXSP,2013-02-13 01:55:00,
2013-02-12 21:00:00,33.1,25.0,29.92,SW,225,0.0,6.0,72,0.00,,,0.15,WUHU21623XXSP,2013-02-13 02:00:00,
2013-02-12 21:05:00,33.1,25.0,29.92,South,180,2.7,6.0,72,0.00,,,0.15,WUHU21623XXSP,2013-02-13 02:05:00,
2013-02-12 21:10:00,33.1,25.0,29.92,WSW,247,0.0,5.8,72,0.00,,,0.15,WUHU21623XXSP,2013-02-13 02:10:00,
2013-02-12 21:15:00,33.1,25.0,29.92,SE,135,0.0,5.8,72,0.00,,,0.15,WUHU21623XXSP,2013-02-13 02:15:00,
2013-02-12 21:20:00,33.1,25.0,29.92,WSW,247,0.0,4.5,72,0.00,,,0.15,WUHU21623XXSP,2013-02-13 02:20:00,
2013-02-12 21:25:00,33.1,25.0,29.92,SSW,202,0.0,7.6,72,0.00,,,0.15,WUHU21623XXSP,2013-02-13 02:25:00,
2013-02-12 21:30:00,32.9,25.1,29.92,SSW,202,0.0,7.6,73,0.00,,,0.15,WUHU21623XXSP,2013-02-13 02:30:00,
2013-02-12 21:35:00,32.9,25.1,29.91,SSE,157,0.0,3.1,73,0.00,,,0.15,WUHU21623XXSP,2013-02-13 02:35:00,
2013-02-12 21:40:00,32.7,25.3,29.91,South,180,3.4,5.6,74,0.00,,,0.15,WUHU21623XXSP,2013-02-13 02:40:00,
2013-02-12 21:45:00,32.7,25.6,29.91,SSW,202,0.0,5.8,75,0.00,,,0.15,WUHU21623XXSP,2013-02-13 02:45:00,
2013-02-12 21:50:00,32.7,25.3,29.91,SW,225,0.0,6.9,74,0.00,,,0.15,WUHU21623XXSP,2013-02-13 02:50:00,
2013-02-12 21:55:00,32.5,25.1,29.90,SSW,202,0.0,6.9,74,0.00,,,0.15,WUHU21623XXSP,2013-02-13 02:55:00,
2013-02-12 22:00:00,32.5,25.1,29.90,SSE,157,2.7,6.7,74,0.00,,,0.15,WUHU21623XXSP,2013-02-13 03:00:00,
2013-02-12 22:04:00,32.5,25.1,29.90,South,180,0.0,9.8,74,0.00,,,0.15,WUHU21623XXSP,2013-02-13 03:04:00,
2013-02-12 22:09:00,32.5,25.5,29.89,WSW,247,5.4,9.8,75,0.00,,,0.15,WUHU21623XXSP,2013-02-13 03:09:00,
2013-02-12 22:14:00,32.5,25.5,29.89,SW,225,0.0,6.5,75,0.00,,,0.15,WUHU21623XXSP,2013-02-13 03:14:00,
2013-02-12 22:19:00,32.5,25.5,29.89,West,270,0.0,11.2,75,0.00,,,0.15,WUHU21623XXSP,2013-02-13 03:19:00,
2013-02-12 22:24:00,32.7,25.6,29.89,SSW,202,0.0,11.2,75,0.00,,,0.15,WUHU21623XXSP,2013-02-13 03:24:00,
2013-02-12 22:29:00,32.5,25.5,29.89,ENE,67,0.0,4.0,75,0.00,,,0.15,WUHU21623XXSP,2013-02-13 03:29:00,
2013-02-12 22:34:00,32.7,25.6,29.89,WSW,247,0.0,4.9,75,0.00,,,0.15,WUHU21623XXSP,2013-02-13 03:34:00,
2013-02-12 22:39:00,32.4,25.3,29.90,SSW,202,10.5,10.5,75,0.00,,,0.15,WUHU21623XXSP,2013-02-13 03:39:00,
2013-02-12 22:44:00,32.4,25.3,29.89,NNW,337,1.1,10.5,75,0.00,,,0.15,WUHU21623XXSP,2013-02-13 03:44:00,
2013-02-12 22:49:00,32.2,25.1,29.89,West,270,0.0,8.7,75,0.00,,,0.15,WUHU21623XXSP,2013-02-13 03:49:00,
2013-02-12 22:54:00,32.2,25.5,29.89,South,180,9.6,9.6,76,0.00,,,0.15,WUHU21623XXSP,2013-02-13 03:54:00,
2013-02-12 22:59:00,32.2,25.5,29.89,WSW,247,0.0,9.6,76,0.00,,,0.15,WUHU21623XXSP,2013-02-13 03:59:00,
2013-02-12 23:04:00,31.8,25.1,29.89,SW,225,4.3,7.8,76,0.00,,,0.15,WUHU21623XXSP,2013-02-13 04:04:00,
2013-02-12 23:09:00,31.8,25.1,29.88,SSE,157,0.0,7.8,76,0.00,,,0.15,WUHU21623XXSP,2013-02-13 04:09:00,
2013-02-12 23:14:00,31.8,25.1,29.89,WNW,292,0.0,7.2,76,0.00,,,0.15,WUHU21623XXSP,2013-02-13 04:14:00,
2013-02-12 23:19:00,31.8,25.1,29.89,WNW,292,0.0,5.4,76,0.00,,,0.15,WUHU21623XXSP,2013-02-13 04:19:00,
2013-02-12 23:24:00,31.8,24.8,29.89,SW,225,0.0,4.9,75,0.00,,,0.15,WUHU21623XXSP,2013-02-13 04:24:00,
2013-02-12 23:29:00,31.8,25.1,29.89,SSW,202,0.0,4.9,76,0.00,,,0.15,WUHU21623XXSP,2013-02-13 04:29:00,
2013-02-12 23:34:00,31.8,25.1,29.89,SSW,202,0.0,3.6,76,0.00,,,0.15,WUHU21623XXSP,2013-02-13 04:34:00,
2013-02-12 23:39:00,31.8,24.8,29.89,NNW,337,0.0,7.2,75,0.00,,,0.15,WUHU21623XXSP,2013-02-13 04:39:00,
2013-02-12 23:44:00,31.6,24.6,29.89,West,270,0.0,7.2,75,0.00,,,0.15,WUHU21623XXSP,2013-02-13 04:44:00,
2013-02-12 23:49:00,31.6,24.6,29.90,SW,225,0.0,0.0,75,0.00,,,0.15,WUHU21623XXSP,2013-02-13 04:49:00,
2013-02-12 23:54:00,31.6,24.6,29.90,NW,315,0.0,7.6,75,0.00,,,0.15,WUHU21623XXSP,2013-02-13 04:54:00,
2013-02-12 23:59:00,31.6,24.6,29.90,SSE,157,0.0,7.6,75,0.00,,,0.15,WUHU21623XXSP,2013-02-13 04:59:00,